Voltar ao catálogo

DELTA 1 DEB

AtivoPO
NORAD 21272·DEBRIS·🇺🇸 United States

Lançado Jun 12, 1975 de Vandenberg Space Force Base

Loading…

Próximas Passagens (próximas 24 horas)

TLE

AtualizadoSource: Space-Track

Época: Sep 14, 2026, 07:41 UTC

1 21272U 75052H   26257.32060911 -.00000309  00000-0 -80143-3 0  9990
2 21272  99.8833  27.0295 0308500  63.6189 327.3457 12.93347247601156

Acompanhe DELTA 1 DEB em tempo real com AllMySat

Download on the App Store